IZ1REU Weather Reports


Display with metric or nautical units.
time (UTC)temp
F
wind
direction
speed
MPH
gust
MPH
rain 1hr
in
rain 24hr
in
rain mn
in
humidity
%
barometer
mb
20260505225029 63 183 0.0 2.0 0.00 1.12 0.00 86 1009.8
20260505224535 63 182 2.0 2.0 0.00 1.12 0.00 86 1009.9
20260505224038 63 186 0.0 4.0 0.00 1.12 0.00 86 1010.0
20260505223533 63 148 2.0 5.0 0.00 1.12 0.00 86 1010.1
20260505223029 63 213 2.0 8.0 0.00 1.12 0.00 86 1010.2
20260505222533 63 169 1.0 4.0 0.00 1.12 0.00 86 1010.2
20260505222029 63 142 2.0 12.0 0.00 1.12 0.00 86 1010.3
20260505221529 64 63 6.0 12.0 0.00 1.12 0.00 86 1010.3
20260505221032 64 117 3.0 4.0 0.00 1.12 0.00 86 1010.2
20260505220532 64 157 1.0 2.0 0.00 1.12 0.00 86 1010.2
20260505220029 64 123 2.0 6.0 0.00 1.12 0.00 86 1010.2
20260505215538 64 145 1.0 6.0 0.00 1.12 0.00 86 1010.2
20260505215035 64 121 1.0 4.0 0.00 1.12 0.00 86 1010.2
20260505214529 64 171 2.0 3.0 0.00 1.12 0.00 86 1010.3
20260505214032 64 92 0.0 5.0 0.00 1.12 0.00 86 1010.4
20260505213529 64 160 0.0 6.0 0.00 1.12 0.00 86 1010.5
20260505213035 64 164 2.0 5.0 0.00 1.12 0.00 86 1010.5
20260505212529 64 144 5.0 8.0 0.00 1.12 0.00 86 1010.6
20260505212029 64 168 2.0 4.0 0.00 1.12 0.00 85 1010.5
20260505211532 64 158 2.0 4.0 0.00 1.12 0.00 85 1010.6
20260505211032 64 114 0.0 4.0 0.00 1.12 0.00 85 1010.6
20260505210529 64 141 4.0 4.0 0.00 1.12 0.00 85 1010.6
20260505210029 64 153 0.0 3.0 0.00 1.12 0.00 85 1010.7
20260505205529 64 144 2.0 5.0 0.00 1.12 0.00 85 1010.8
20260505205029 64 112 2.0 5.0 0.00 1.12 0.00 85 1010.8
20260505204529 64 115 2.0 6.0 0.00 1.12 0.00 85 1010.8
20260505204035 63 71 1.0 5.0 0.00 1.12 0.00 85 1010.8
20260505203529 63 142 0.0 2.0 0.00 1.12 0.00 84 1010.9
20260505203029 63 158 0.0 2.0 0.00 1.12 0.00 84 1010.9
20260505202529 63 165 0.0 3.0 0.00 1.12 0.00 84 1010.9
20260505202033 63 132 1.0 4.0 0.00 1.12 0.00 84 1011.0
20260505201530 63 168 1.0 6.0 0.00 1.12 0.00 84 1011.0
20260505201035 63 170 1.0 5.0 0.00 1.12 0.00 84 1010.9
20260505200535 63 168 2.0 5.0 0.00 1.12 0.00 84 1010.9
20260505200032 63 133 0.0 3.0 0.00 1.12 0.00 84 1010.9
20260505195532 63 134 2.0 5.0 0.00 1.12 0.00 84 1010.9
20260505195035 63 151 1.0 6.0 0.00 1.12 0.00 84 1011.0
20260505194529 63 175 1.0 7.0 0.00 1.12 0.00 84 1011.0
20260505194035 63 173 2.0 6.0 0.00 1.12 0.00 84 1011.0
20260505193532 64 147 2.0 5.0 0.00 1.12 0.00 84 1010.9
20260505193029 64 181 1.0 3.0 0.00 1.12 0.00 84 1010.8
20260505192529 64 171 0.0 4.0 0.00 1.12 0.00 84 1010.8
20260505192029 64 167 3.0 5.0 0.00 1.12 0.00 84 1010.8
20260505191529 64 194 2.0 6.0 0.00 1.12 0.00 83 1010.8
20260505191029 64 150 1.0 4.0 0.00 1.12 0.00 83 1010.8
20260505190535 64 150 1.0 5.0 0.00 1.12 0.00 83 1010.6
20260505190032 64 131 0.0 7.0 0.00 1.12 0.00 83 1010.6
20260505185532 64 162 0.0 4.0 0.00 1.12 0.00 83 1010.5
20260505185029 64 159 1.0 4.0 0.00 1.12 0.00 83 1010.5
20260505184532 64 156 2.0 4.0 0.00 1.12 0.00 83 1010.6
20260505184029 64 205 1.0 5.0 0.00 1.12 0.00 83 1010.6
20260505183532 64 159 2.0 6.0 0.00 1.12 0.00 82 1010.7
20260505183029 64 124 2.0 7.0 0.00 1.12 0.00 82 1010.7
20260505182529 64 130 0.0 7.0 0.00 1.12 0.00 82 1010.7
20260505182032 64 101 0.0 7.0 0.00 1.12 0.00 82 1010.8
20260505181532 64 159 1.0 5.0 0.00 1.12 0.00 82 1010.7
20260505181029 64 251 1.0 5.0 0.00 1.12 0.00 81 1010.8
20260505180529 64 154 2.0 7.0 0.00 1.12 0.00 81 1010.7
20260505180029 64 230 3.0 4.0 0.00 1.12 0.00 84 1010.7
20260505175529 64 278 0.0 6.0 0.00 1.12 0.00 83 1010.6
20260505175029 65 129 3.0 4.0 0.00 1.12 0.00 83 1010.6
20260505174529 65 234 1.0 5.0 0.00 1.12 0.00 82 1010.6
20260505174029 65 134 0.0 8.0 0.00 1.12 0.00 82 1010.6
20260505173529 65 139 3.0 3.0 0.00 1.12 0.00 81 1010.6
20260505173032 66 119 0.0 6.0 0.00 1.12 0.00 80 1010.6
20260505172529 66 134 2.0 3.0 0.00 1.12 0.00 81 1010.5
20260505172032 65 323 0.0 4.0 0.00 1.12 0.00 83 1010.5
20260505171529 65 136 0.0 5.0 0.00 1.12 0.00 82 1010.5
20260505171029 65 128 3.0 8.0 0.00 1.12 0.00 82 1010.5
20260505170529 65 144 1.0 8.0 0.00 1.12 0.00 82 1010.6
20260505170032 66 275 1.0 7.0 0.00 1.12 0.00 82 1010.6
20260505165529 66 116 1.0 6.0 0.00 1.12 0.00 82 1010.6
20260505165029 65 289 0.0 5.0 0.00 1.12 0.00 83 1010.7
20260505164529 65 118 1.0 7.0 0.00 1.12 0.00 82 1010.7
20260505164029 65 135 2.0 8.0 0.00 1.12 0.00 82 1010.7
20260505163538 65 142 3.0 8.0 0.00 1.12 0.00 82 1010.6
20260505163032 65 135 8.0 8.0 0.00 1.12 0.00 82 1010.7
20260505162532 65 139 5.0 5.0 0.00 1.12 0.00 81 1010.6
20260505162029 65 134 0.0 7.0 0.00 1.12 0.00 81 1010.6
20260505161529 65 123 3.0 11.0 0.00 1.12 0.00 80 1010.6
20260505161029 66 125 2.0 8.0 0.00 1.12 0.00 80 1010.6
20260505160532 66 140 0.0 9.0 0.00 1.12 0.00 79 1010.6
20260505153032 67 275 0.0 9.0 0.00 1.12 0.00 79 1010.7
20260505152529 66 233 3.0 8.0 0.00 1.12 0.00 79 1010.9
20260505152032 65 133 4.0 7.0 0.00 1.12 0.00 80 1010.9
20260505151529 65 128 1.0 5.0 0.00 1.12 0.00 79 1011.0
20260505151032 65 151 0.0 5.0 0.00 1.12 0.00 79 1010.9
20260505150529 65 259 0.0 9.0 0.00 1.12 0.00 79 1010.8
20260505140529 67 121 2.0 10.0 0.00 1.12 0.00 78 1010.8
20260505125032 68 268 0.0 5.0 0.00 1.12 0.00 73 1010.9
20260505124529 67 154 2.0 5.0 0.00 1.12 0.00 73 1010.9
20260505124029 67 132 2.0 9.0 0.00 1.12 0.00 74 1010.9
20260505123529 67 130 1.0 7.0 0.00 1.12 0.00 74 1010.9
20260505123032 67 143 1.0 3.0 0.00 1.12 0.00 75 1010.9
20260505122532 66 123 1.0 5.0 0.00 1.12 0.00 75 1011.0
20260505122029 66 101 1.0 5.0 0.00 1.12 0.00 75 1011.0
20260505121529 66 96 0.0 3.0 0.00 1.12 0.00 74 1011.0
20260505121035 66 109 2.0 4.0 0.00 1.12 0.00 75 1010.9
20260505120535 65 355 0.0 3.0 0.00 1.12 0.00 75 1010.9
20260505120029 65 304 0.0 3.0 0.00 1.12 0.00 76 1010.9
20260505115529 65 307 1.0 2.0 0.00 1.12 0.00 76 1011.0
20260505115032 65 308 2.0 5.0 0.00 1.12 0.00 75 1011.0
20260505114538 64 325 0.0 4.0 0.00 1.12 0.00 76 1011.0
20260505114032 64 49 3.0 7.0 0.00 1.12 0.00 77 1011.0
20260505113535 64 16 7.0 10.0 0.00 1.12 0.00 77 1010.9
20260505113029 63 331 2.0 8.0 0.00 1.12 0.00 77 1011.0
20260505112532 63 37 5.0 5.0 0.00 1.12 0.00 78 1011.0
20260505112029 63 345 3.0 5.0 0.00 1.12 0.00 77 1011.1
20260505111529 63 14 4.0 9.0 0.00 1.12 0.00 78 1011.1
20260505111029 62 340 5.0 8.0 0.00 1.12 0.00 77 1011.2
20260505110529 62 344 3.0 9.0 0.00 1.12 0.00 77 1011.1
20260505102032 59 338 3.0 11.0 0.00 1.12 0.00 83 1011.2
20260505101529 59 82 3.0 14.0 0.00 1.12 0.00 83 1011.2
20260505101029 59 5 9.0 13.0 0.00 1.12 0.00 84 1011.1
20260505100532 59 321 4.0 12.0 0.00 1.12 0.00 84 1011.1
20260505100029 59 32 9.0 11.0 0.00 1.12 0.00 84 1011.1
20260505095529 59 324 4.0 9.0 0.00 1.12 0.00 84 1011.1
20260505095029 59 0 9.0 9.0 0.00 1.12 0.00 84 1011.2
20260505094532 59 46 3.0 9.0 0.00 1.12 0.00 83 1011.1
20260505094035 59 312 5.0 13.0 0.00 1.12 0.00 83 1011.1
20260505093535 59 5 3.0 9.0 0.00 1.12 0.00 83 1011.1
20260505093032 59 315 2.0 10.0 0.00 1.12 0.00 83 1011.1
20260505092529 59 319 3.0 8.0 0.00 1.12 0.00 83 1011.0
20260505092035 59 306 3.0 10.0 0.00 1.12 0.00 82 1010.9
20260505091529 59 290 8.0 9.0 0.00 1.12 0.00 82 1010.8
20260505091035 59 13 2.0 10.0 0.00 1.12 0.00 82 1010.8
20260505090529 59 345 1.0 10.0 0.00 1.12 0.00 82 1010.9
20260505090032 59 18 4.0 10.0 0.00 1.12 0.00 82 1010.9
20260505085529 59 355 2.0 8.0 0.00 1.12 0.00 82 1010.9
20260505085029 59 355 1.0 11.0 0.00 1.12 0.00 82 1010.9
20260505084529 59 79 5.0 9.0 0.00 1.12 0.00 82 1010.9
20260505084029 59 283 2.0 10.0 0.00 1.12 0.00 82 1010.7
20260505083532 59 35 4.0 7.0 0.00 1.12 0.00 82 1010.7
20260505083029 59 331 2.0 10.0 0.00 1.12 0.00 82 1010.7
20260505082533 59 355 8.0 10.0 0.00 1.12 0.00 83 1010.6
20260505082029 59 303 2.0 5.0 0.00 1.12 0.00 83 1010.6
20260505081529 59 341 3.0 6.0 0.00 1.12 0.00 83 1010.6
20260505081029 59 294 1.0 4.0 0.00 1.12 0.00 83 1010.7
20260505080532 59 64 2.0 6.0 0.00 1.12 0.00 84 1010.7
20260505080035 58 31 2.0 11.0 0.00 1.12 0.00 84 1010.5
20260505075529 58 321 4.0 11.0 0.00 1.12 0.00 84 1010.3
20260505075032 58 22 5.0 11.0 0.00 1.12 0.00 85 1010.4
20260505074532 58 30 10.0 10.0 0.00 1.12 0.00 85 1010.5
20260505074029 58 52 2.0 11.0 0.00 1.12 0.00 85 1010.6
20260505073535 58 338 3.0 13.0 0.00 1.12 0.00 85 1010.6
20260505073029 58 5 3.0 9.0 0.00 1.12 0.00 86 1010.7
20260505072529 58 331 5.0 9.0 0.00 1.12 0.00 86 1010.7
20260505072029 58 294 1.0 9.0 0.01 1.12 0.00 87 1010.6
20260505071529 57 33 5.0 9.0 0.03 1.12 0.00 87 1010.6
20260505071032 57 62 0.0 5.0 0.04 1.12 0.00 87 1010.8
20260505070532 57 163 2.0 6.0 0.05 1.12 0.00 87 1010.7
20260505070032 57 30 4.0 11.0 0.07 1.12 0.00 87 1010.6
20260505065529 56 34 8.0 11.0 0.07 1.12 0.00 87 1010.5
20260505065029 56 30 5.0 12.0 0.09 1.12 0.00 87 1010.4
20260505064535 56 317 4.0 12.0 0.11 1.12 0.00 88 1010.4
20260505064029 56 302 2.0 12.0 0.13 1.12 0.00 88 1010.3
20260505063529 56 30 3.0 10.0 0.17 1.12 0.00 88 1010.2
20260505063032 56 42 4.0 12.0 0.18 1.11 0.00 88 1010.2
20260505062529 56 12 8.0 15.0 0.22 1.11 0.00 88 1010.0
20260505062035 56 46 6.0 12.0 0.25 1.11 0.00 88 1009.7
20260505061529 56 15 7.0 18.0 0.26 1.09 0.00 88 1009.9
20260505061038 56 350 3.0 11.0 0.27 1.07 0.00 88 1009.9
20260505060538 56 296 4.0 11.0 0.27 1.07 0.00 88 1009.7
20260505060038 56 37 9.0 15.0 0.26 1.05 0.00 89 1009.5
20260505055538 56 59 9.0 17.0 0.26 1.04 0.00 89 1009.3
20260505055032 56 346 8.0 22.0 0.25 1.03 0.00 90 1009.2
20260505054529 56 27 8.0 19.0 0.25 1.01 0.00 90 1009.3
20260505054029 56 51 6.0 19.0 0.24 0.99 0.00 90 1009.4
20260505053532 56 36 6.0 13.0 0.22 0.95 0.00 90 1010.2
20260505053029 56 350 5.0 11.0 0.25 0.92 0.00 90 1010.4
20260505052532 56 42 10.0 11.0 0.25 0.88 0.00 90 1010.3
20260505052038 56 13 5.0 11.0 0.25 0.85 0.00 90 1010.2
20260505051535 56 19 4.0 10.0 0.27 0.82 0.00 90 1010.0
20260505051032 56 99 2.0 11.0 0.29 0.80 0.00 90 1010.1
20260505050538 56 320 8.0 13.0 0.31 0.79 0.00 90 1010.0
20260505041529 57 308 1.0 3.0 0.33 0.55 0.00 92 1010.1
20260505041032 57 310 1.0 6.0 0.32 0.51 0.00 92 1010.2
20260505040532 57 292 2.0 3.0 0.29 0.48 0.00 91 1010.0
20260505040032 57 76 0.0 4.0 0.28 0.45 0.00 91 1010.0
20260505035532 57 311 2.0 4.0 0.22 0.38 0.00 91 1010.3
20260505035029 57 330 1.0 5.0 0.21 0.37 0.00 91 1009.9
20260505034529 57 33 0.0 9.0 0.19 0.35 0.00 91 1009.9
20260505034029 57 44 0.0 5.0 0.16 0.31 0.00 91 1010.0
20260505033535 57 287 1.0 5.0 0.14 0.29 0.00 91 1010.1
20260505033029 57 312 1.0 5.0 0.14 0.27 0.00 92 1010.2
20260505032532 58 325 1.0 3.0 0.14 0.26 0.00 92 1010.3
20260505032029 58 317 2.0 4.0 0.14 0.24 0.00 92 1010.4
20260505031529 58 313 3.0 4.0 0.12 0.22 0.00 91 1010.5
20260505031035 58 10 0.0 1.0 0.10 0.18 0.00 91 1010.6
20260505030529 58 322 0.0 2.0 0.10 0.18 0.00 91 1010.7
20260505030035 58 317 1.0 3.0 0.10 0.17 0.00 90 1010.9
20260505025529 58 319 0.0 2.0 0.09 0.16 0.00 90 1011.0
20260505025029 58 302 0.0 1.0 0.09 0.15 0.00 90 1011.1
20260505024532 58 319 0.0 1.0 0.09 0.15 0.00 90 1011.2
20260505024029 58 318 0.0 2.0 0.09 0.14 0.00 90 1011.2
20260505023529 58 319 0.0 2.0 0.08 0.14 0.00 91 1011.3
20260505023032 58 324 1.0 2.0 0.08 0.13 0.00 91 1011.4
20260505022529 59 287 0.0 1.0 0.07 0.11 0.00 91 1011.5
20260505022035 59 287 0.0 2.0 0.06 0.10 0.00 90 1011.6
20260505021535 58 321 1.0 4.0 0.05 0.09 0.00 90 1011.5
20260505021029 59 326 1.0 4.0 0.05 0.08 0.00 90 1011.6
20260505020535 59 305 0.0 1.0 0.04 0.07 0.00 90 1011.6
20260505020029 59 272 0.0 2.0 0.04 0.07 0.00 90 1011.6
20260505015529 59 9 1.0 3.0 0.05 0.07 0.00 89 1011.6
20260505015029 59 296 2.0 3.0 0.05 0.06 0.00 89 1011.7
20260505014532 60 325 2.0 4.0 0.06 0.06 0.00 88 1011.8
20260505014029 60 311 2.0 2.0 0.05 0.05 0.00 86 1011.9
20260505013529 60 328 0.0 2.0 0.05 0.05 0.00 85 1012.0
20260505013032 61 355 0.0 1.0 0.04 0.04 0.00 84 1012.0
20260505012529 61 355 0.0 1.0 0.04 0.04 0.00 83 1012.0
20260505012032 61 61 0.0 2.0 0.03 0.03 0.00 82 1012.1
20260505011535 61 49 0.0 3.0 0.03 0.03 0.00 81 1012.1
20260505011029 61 92 0.0 2.0 0.03 0.03 0.00 79 1012.2
20260505010535 62 88 1.0 3.0 0.03 0.03 0.00 79 1012.3
20260505010029 62 120 0.0 2.0 0.02 0.02 0.00 78 1012.4
20260505005532 62 87 0.0 2.0 0.01 0.01 0.00 77 1012.5
20260505005032 63 133 0.0 4.0 0.00 0.00 0.00 78 1012.6
20260505004532 63 103 1.0 2.0 0.00 0.00 0.00 75 1012.7
20260505004032 63 56 2.0 2.0 0.00 0.00 0.00 74 1012.7
20260505003535 64 126 0.0 2.0 0.00 0.00 0.00 73 1012.8
20260505003029 64 132 0.0 7.0 0.00 0.00 0.00 71 1012.8
20260505002529 64 141 4.0 4.0 0.00 0.00 0.00 71 1012.8
20260505002035 64 42 0.0 7.0 0.00 0.00 0.00 70 1012.9
20260505001532 64 134 1.0 7.0 0.00 0.00 0.00 70 1013.0
20260505001029 64 95 0.0 7.0 0.00 0.00 0.00 69 1013.2
20260505000529 64 97 8.0 8.0 0.00 0.00 0.00 69 1013.2
20260505000035 64 98 2.0 4.0 0.00 0.00 0.00 70 1013.3
20260504235529 64 110 0.0 3.0 0.00 0.00 0.00 71 1013.3
20260504235029 64 94 0.0 2.0 0.00 0.00 0.00 72 1013.4
20260504234535 64 304 0.0 1.0 0.00 0.00 0.00 73 1013.5
20260504234032 63 123 0.0 1.0 0.00 0.00 0.00 73 1013.5
20260504233532 63 125 0.0 3.0 0.00 0.00 0.00 74 1013.6
20260504233029 63 38 0.0 1.0 0.00 0.00 0.00 74 1013.7
20260504232532 64 120 0.0 2.0 0.00 0.00 0.00 76 1013.8
20260504232032 64 127 2.0 6.0 0.00 0.00 0.00 75 1013.9
20260504231532 64 121 0.0 11.0 0.00 0.00 0.00 74 1014.0
20260504231032 64 132 0.0 10.0 0.00 0.00 0.00 72 1014.0
20260504230529 64 109 0.0 3.0 0.00 0.00 0.00 71 1014.1
20260504230032 64 99 3.0 4.0 0.00 0.00 0.00 70 1014.1
20260504225529 64 98 0.0 1.0 0.00 0.00 0.00 70 1014.2